San Luis Obispo, CA

5:19 PM PDT on June 24, 2017 (GMT -0700)
San Luis Obispo County-McChesney

Weather History for KSBP - January, 2013

Change the Weather History Date:

Friday, January 25, 2013

  Actual Average Record
Temperature  
Mean Temperature 62 °F -  
Max Temperature 68 °F 65 °F 84 °F (2015)
Min Temperature 55 °F 41 °F 31 °F (1949)
Degree Days  
Heating Degree Days 4    
Growing Degree Days 12 (Base 50)    
Moisture  
Dew Point 55 °F    
Average Humidity 85    
Maximum Humidity 100    
Minimum Humidity 61    
Precipitation  
Precipitation 0.03 in - - ()
Sea Level Pressure  
Sea Level Pressure 30.06 in    
Wind  
Wind Speed 2 mph (North)    
Max Wind Speed 7 mph    
Max Gust Speed -    
Visibility 9 miles    
Events Rain    
Averages and records for this station are not official NWS values.
T = Trace of Precipitation, MM = Missing Value Source: NWS Daily Summary

Daily Weather History Graph

Daily Weather History Graph

Search for Another Location

Airport or City:

Trip Planner

Search our weather history database for the weather conditions in past years. The results will help you decide how hot, cold, wet, or windy it might be!

Date:

Astronomy

Jan. 25, 2013 Rise Set
Actual Time 7:06 AM PST 5:24 PM PST
Civil Twilight 6:39 AM PST 5:51 PM PST
Nautical Twilight 6:08 AM PST 6:21 PM PST
Astronomical Twilight 5:38 AM PST 6:51 PM PST
Moon 4:25 PM PST 5:49 AM PST
Length of Visible Light 11h 11m
Length of Day
10h 17m
Waxing Gibbous, 98% of the Moon is Illuminated
Jan 25
Waxing Gibbous
Jan 26
Full
Feb 3
Last Quarter
Feb 9
New
Feb 17
First Quarter

Hourly Weather History & Observations

Time (PST) Temp. Dew Point Humidity Pressure Visibility Wind Dir Wind Speed Gust Speed Precip Events Conditions
12:56 AM 55.9 °F 55.0 °F 97% 30.14 in 9.0 mi Calm Calm - N/A   Overcast
1:56 AM 55.9 °F 55.0 °F 97% 30.13 in 7.0 mi North 5.8 mph - 0.00 in Rain Light Rain
2:56 AM 57.9 °F 55.0 °F 90% 30.13 in 8.0 mi Calm Calm - 0.00 in   Overcast
3:56 AM 55.9 °F 55.9 °F 100% 30.10 in 4.0 mi South 3.5 mph - 0.03 in   Overcast
4:56 AM 57.0 °F 55.0 °F 93% 30.09 in 10.0 mi Calm Calm - N/A   Overcast
5:56 AM 55.9 °F 55.0 °F 97% 30.09 in 9.0 mi Variable 3.5 mph - N/A   Overcast
6:56 AM 55.9 °F 55.0 °F 97% 30.09 in 10.0 mi Calm Calm - N/A   Overcast
7:56 AM 55.0 °F 54.0 °F 96% 30.09 in 8.0 mi Calm Calm - N/A   Mostly Cloudy
8:56 AM 59.0 °F 55.9 °F 90% 30.10 in 10.0 mi Calm Calm - N/A   Mostly Cloudy
9:56 AM 64.9 °F 55.0 °F 70% 30.11 in 10.0 mi Calm Calm - N/A   Scattered Clouds
10:56 AM 66.9 °F 55.0 °F 66% 30.11 in 10.0 mi Variable 3.5 mph - N/A   Scattered Clouds
11:56 AM 66.9 °F 55.0 °F 66% 30.08 in 10.0 mi NNW 3.5 mph - N/A   Mostly Cloudy
12:56 PM 68.0 °F 54.0 °F 61% 30.03 in 10.0 mi Variable 3.5 mph - N/A   Scattered Clouds
1:56 PM 66.9 °F 55.0 °F 66% 30.01 in 10.0 mi NW 6.9 mph - N/A   Overcast
2:56 PM 66.9 °F 55.9 °F 68% 30.01 in 10.0 mi NNW 5.8 mph - N/A   Mostly Cloudy
3:56 PM 66.0 °F 57.9 °F 75% 30.01 in 10.0 mi ESE 6.9 mph - 0.00 in   Overcast
4:56 PM 62.1 °F 55.0 °F 78% 30.01 in 10.0 mi WNW 4.6 mph - 0.00 in Rain Light Rain
5:56 PM 61.0 °F 57.0 °F 87% 30.02 in 10.0 mi SE 3.5 mph - 0.00 in   Mostly Cloudy
6:56 PM 59.0 °F 57.0 °F 93% 30.03 in 10.0 mi East 4.6 mph - N/A   Overcast
7:56 PM 59.0 °F 57.0 °F 93% 30.01 in 10.0 mi Calm Calm - N/A   Overcast
8:56 PM 57.0 °F 55.0 °F 93% 30.01 in 10.0 mi Calm Calm - N/A   Clear
9:56 PM 55.9 °F 55.0 °F 97% 30.00 in 10.0 mi SE 4.6 mph - N/A   Clear
10:56 PM 55.9 °F 53.1 °F 90% 30.01 in 10.0 mi Calm Calm - N/A   Clear
11:56 PM 55.0 °F 52.0 °F 89% 30.00 in 9.0 mi SW 3.5 mph - N/A   Clear